Regional Weather Roundup
Issued by NWS Northern Indiana

Home | Current Version | Previous Version | Text Only | Print | Product List | Glossary Off
Versions: 1 2 3 4 5 6 7 8 9 10 11 12 13 14 15 16 17 18 19 20 21 22 23 24 25 26 27 28 29 30 31 32 33 34 35 36 37 38 39 40 41 42 43 44 45 46 47 48 49 50

383
ASUS43 KIWX 270410
RWRIWX

KIWX WEATHER ROUNDUP
NATIONAL WEATHER SERVICE NORTHERN INDIANA
1200 AM EDT MON MAR 27 2017

NOTE: "FAIR" INDICATES FEW OR NO CLOUDS BELOW 12,000 FEET WITH NO
SIGNIFICANT WEATHER AND/OR OBSTRUCTIONS TO VISIBILITY.

* THESE STATIONS ARE NOT UNDER NWS QUALITY CONTROL. THEY ALSO MAY NOT
  REPORT WEATHER SUCH AS PRECIPITATION OR FOG.

INZ001>027-270500-
NORTHERN INDIANA

CITY           SKY/WX    TMP DP  RH WIND       PRES   REMARKS
GARY*          CLOUDY    54  49  83 SW6       29.90S
VALPARAISO     CLOUDY    53  51  93 W14       29.91R
MICHIGAN CITY* CLOUDY    52  52 100 SW9       29.91R
LAPORTE*       CLOUDY    52  50  93 SW8       29.91R
KNOX*          CLOUDY    52  39  62 SW9       29.91S
SOUTH BEND     CLOUDY    52  51  97 SW8       29.90R
GOSHEN         MOCLDY    53  49  86 W9        29.89S
MONTICELLO*    CLOUDY    52  51  95 W6        29.92F
LOGANSPORT*    CLOUDY    52  50  93 W13G18    29.93F FOG
ROCHESTER*     CLOUDY    55  52  88 W10       29.92S
WARSAW*        CLOUDY    54  50  87 W13       29.91R
ANGOLA*        CLOUDY    52  46  82 SW3       29.89S
FORT WAYNE     CLOUDY    54  51  90 SW10      29.91S
HUNTINGTON*    CLOUDY    54  51  91 W9        29.92S
PERU/GRISSOM   CLOUDY    54  54 100 W12       29.91F
MARION*        CLOUDY    53  50  92 SW10      29.94F

$$
INZ028>050-270500-
CENTRAL INDIANA

CITY           SKY/WX    TMP DP  RH WIND       PRES   REMARKS
LAFAYETTE      CLOUDY    52  52 100 W7        29.93F FOG
KOKOMO*        CLOUDY    54  51  90 W12       29.94S
MUNCIE*        CLOUDY    56  49  77 W8        29.94S
INDIANAPOLIS   MOCLDY    53  48  83 SW12      29.96R

$$
MIZ043>046-050>051-056>058-064>065-071>073-077>080-270500-
SOUTHWEST LOWER MICHIGAN

CITY           SKY/WX    TMP DP  RH WIND       PRES   REMARKS
BATTLE CREEK   CLOUDY    53  53 100 S7        29.88R FOG
BENTON HARBOR  LGT RAIN  53  50  89 SW15      29.88S FOG
COLDWATER*     CLOUDY    53  53 100 SW7       29.88S
HILLSDALE*     CLOUDY    50  50 100 S5        29.87F
HOLLAND        CLOUDY    47  45  93 W7        29.87R
GRAND RAPIDS   CLOUDY    53  53 100 SW9       29.85S FOG
KALAMAZOO      CLOUDY    54  50  86 SW7       29.87S
STURGIS*       CLOUDY    52  52  98 SW6       29.88R
THREE RIVERS*  FOG       51  51 100 SW3       29.88S VSB 3/4

$$
OHZ001>008-015>018-024>025-270500-
NORTHWEST OHIO

CITY           SKY/WX    TMP DP  RH WIND       PRES   REMARKS
WAUSEON*       CLOUDY    52  50  93 SW7       29.89S FOG
DEFIANCE       CLOUDY    53  51  93 SW8       29.90S
FINDLAY        LGT RAIN  55  50  83 S8        29.90F
TOLEDO EXPRESS CLOUDY    51  51 100 SW5       29.89S
TOLEDO METCALF CLOUDY    52  52 100 S7        29.90S
LIMA           LGT RAIN  54  53  97 SW7       29.93R

$$
AND FOR LAKE MICHIGAN COASTAL AND OPEN LAKE BUOY OBSERVATIONS

STATION/POSITION TEMP    WIND        PRES    VSBY  WAVE
                 AIR SEA DIR/SP/G                  HT/PER
                 (F)     (DEG/KT/KT) (MB)    (MI)  (FT/S)
CALUMET HARBOR    52     230/  4/  9 1011.7R
MICHIGAN CITY     52     220/ 10/ 10   N/A
BURNS HARBOR      53     230/ 10/ 13 1012.9R

$$
&&




USA.gov is the U.S. government's official web portal to all federal, state and local government web resources and services.